Home > Weather > Dalian > Past weeks

Flag for China Weather for the Past 2 Weeks in Dalian, Liaoning, China

Now
25 °F

Light snow. More clouds than sun.


Feels Like: 9 °F
Forecast: 13 / 20 °F
Wind: 24 mph from North

Location: Dalian Airport

Current Time: Feb 13, 2016 at 5:33:37 PM

Latest Report: Feb 13, 2016 at 5:00 PM


Visibility: 1 mi

Pressure: 30.04 "Hg

Humidity: 86%

Dew point: 21 °F

Location of DalianLocation

Historic Weather in Dalian — Graph

°F

Dalian Temperature Yesterday

Maximum temperature yesterday: 45 °F (at 1:00 PM)
Minimum temperature yesterday: 39 °F (at 12:00 AM)
Average temperature yesterday: 42 °F

High & Low Weather Summary for the Past Weeks

 TemperatureHumidityPressure
High46 °F (Feb 10, 1:30 PM)100% (Feb 11, 3:30 PM)30.63 "Hg (Feb 11, 3:30 PM)
Low9 °F (Jan 31, 6:30 AM)19% (Feb 4, 1:00 PM)29.83 "Hg (Feb 8, 12:00 PM)
Average28 °F61%30.26 "Hg
* Reported Jan 29 4:00 PM — Feb 13 4:30 PM, Dalian, Weather by CustomWeather, © 2016

Note: Actual official high and low records may vary slightly from our data, if they occured in-between our weather recording intervals... More about our weather records

Advertising

Dalian Weather History for the Previous 24 Hours

 ConditionsComfort  
Time TempWeatherWind HumidityBarometerVisibility
4:30 PM
Sat, Feb 13
25 °FLight snow. More clouds than sun.24 mph86%30.04 "Hg1 mi
4:00 PM25 °FLight snow. More clouds than sun.24 mph86%30.01 "Hg1 mi
3:30 PM25 °FLight snow. More clouds than sun.24 mph86%29.98 "Hg1 mi
3:00 PM25 °FLight snow. More clouds than sun.22 mph86%29.95 "Hg1 mi
2:30 PM25 °FSnow. More clouds than sun.22 mph93%29.95 "Hg1 mi
2:00 PM25 °FLight snow. More clouds than sun.22 mph93%29.95 "Hg1 mi
1:30 PM27 °FLight snow. More clouds than sun.17 mph86%29.95 "Hg1 mi
1:00 PM25 °FSnow. More clouds than sun.17 mph93%29.95 "Hg1 mi
12:30 PM25 °FSnow. More clouds than sun.20 mph93%29.98 "Hg1 mi
12:00 PM27 °FSnow. More clouds than sun.20 mph86%30.01 "Hg1 mi
11:30 AM27 °FSnow. More clouds than sun.20 mph86%30.01 "Hg1 mi
11:00 AM27 °FLight snow. Ice fog.17 mph93%30.01 "Hg1 mi
10:30 AM27 °FLight snow. Ice fog.20 mph93%30.01 "Hg1 mi
10:00 AM28 °FLight snow. Ice fog.20 mph86%30.01 "Hg1 mi
9:30 AM28 °FSleet. Ice fog.20 mph93%30.01 "Hg2 mi
9:00 AM28 °FSleet. Ice fog.20 mph93%30.01 "Hg2 mi
8:30 AM30 °FSleet. Ice fog.22 mph86%30.01 "Hg2 mi
8:00 AM30 °FSleet. Ice fog.24 mph86%29.98 "Hg3 mi
7:30 AM32 °FLight rain. Ice fog.22 mph75%29.98 "Hg3 mi
7:00 AM32 °FLight rain. More clouds than sun.22 mph75%29.98 "Hg4 mi
6:30 AM32 °FLight rain. Mostly cloudy.22 mph75%29.98 "Hg4 mi
6:00 AM34 °FLight rain. Mostly cloudy.22 mph70%29.98 "Hg4 mi
5:30 AM34 °FFog.17 mph75%29.98 "Hg2 mi
5:00 AM34 °FLight rain. Fog.15 mph81%29.98 "Hg2 mi
4:30 AM36 °FLight rain. Fog.15 mph75%29.98 "Hg2 mi
4:00 AM36 °FLight rain. Fog.13 mph81%29.98 "Hg2 mi
3:30 AM36 °FFog.15 mph87%29.98 "Hg1 mi
3:00 AM37 °FLight rain. Fog.13 mph93%29.98 "Hg1 mi
2:30 AM37 °FLight rain. Fog.10 mph100%29.98 "Hg1 mi
2:00 AM39 °FLight rain. Fog.8 mph100%29.98 "Hg1 mi
1:30 AM41 °FFog.6 mph93%29.98 "Hg1 mi
1:00 AM41 °FFog.10 mph93%29.98 "Hg1 mi
12:30 AM43 °FFog.6 mph93%29.98 "Hg1 mi
12:00 AM43 °FLight rain. Fog.3 mph93%29.98 "Hg1 mi
11:30 PM
Fri, Feb 12
43 °FLight rain. Fog.3 mph100%29.98 "Hg1 mi
11:00 PM43 °FLight rain. Fog.6 mph100%30.01 "Hg1 mi
10:30 PM43 °FLight rain. Fog.3 mph93%30.01 "Hg1 mi
10:00 PM43 °FLight rain. Fog.3 mph93%30.01 "Hg1 mi
9:30 PM43 °FFog.1 mph93%30.04 "Hg2 mi
9:00 PM43 °FFog.1 mph93%30.04 "Hg2 mi
8:30 PM43 °FFog.3 mph93%30.04 "Hg2 mi
8:00 PM43 °FFog.3 mph93%30.01 "Hg1 mi
7:30 PM43 °FFog.1 mph100%30.01 "Hg1 mi
7:00 PM43 °FFog.3 mph93%30.01 "Hg1 mi
6:30 PM43 °FFog.3 mph93%30.01 "Hg1 mi
6:00 PM43 °FFog.3 mph93%30.01 "Hg1 mi
5:30 PM43 °FFog.6 mph93%30.01 "Hg1 mi
5:00 PM43 °FFog.3 mph93%29.98 "Hg1 mi
Weather by CustomWeather, © 2016

See weather overviewHow to use our weather pages